Location: Saint Louis
(38.6270°N, 90.1980°W)
Time: 02:23:15
(UTC-05:00)

ISS - Pass Details

Date: 22 April 2013
Orbit: 401 x 404 km, 51.6° (Epoch: 31 July)

Event Time Altitude Azimuth Distance (km) Brightness Sun altitude
Rises 21:29:06 0° 314° (NW) 2,364 2.1 -19.2°
Reaches altitude 10° 21:31:17 10° 323° (NW) 1,502 0.6 -19.5°
Maximum altitude 21:34:27 37° 32° (NNE) 669 -2.3 -20.0°
Enters shadow 21:34:33 37° 37° (NE) 670 -2.3 -20.0°
